This is the latest recevied weather packets stored in our database for station/object DELTON-WX. If no packets are shown the sender has not sent any weather packets the latest 10 day(s).
| Time | Temp. | Humidity | Pressure | Rain* | Wind** | Luminosity | Snow |
|---|---|---|---|---|---|---|---|
| 1777838476 | 13.33° C | 56% | 978 hPa | 0 mm | - | - | - |
| 1777837546 | 13.33° C | 51% | 978.5 hPa | 0 mm | - | - | - |
| 1777836668 | 13.89° C | 51% | 978.5 hPa | 0 mm | - | - | - |
| 1777835748 | 13.89° C | 51% | 978.5 hPa | 0 mm | - | - | - |
| 1777834879 | 13.89° C | 51% | 978.5 hPa | 0 mm | - | - | - |
| 1777833947 | 13.89° C | 47% | 979.3 hPa | 0 mm | - | - | - |
| 1777833356 | 14.44° C | 47% | 979.3 hPa | 0 mm | - | - | - |
| 1777832146 | 15° C | 43% | 979.5 hPa | 0 mm | - | - | - |
| 1777831281 | 15° C | 43% | 979.5 hPa | 0 mm | - | - | - |
| 1777830345 | 14.44° C | 49% | 980 hPa | 0 mm | - | - | - |
| 1777829466 | 14.44° C | 46% | 979.3 hPa | 0 mm | - | - | - |
| 1777827675 | 14.44° C | 46% | 979.4 hPa | 0 mm | - | - | - |
| 1777826746 | 13.89° C | 53% | 979.9 hPa | 0 mm | - | - | - |
| 1777825863 | 13.89° C | 52% | 979 hPa | 0 mm | - | - | - |
| 1777824945 | 13.33° C | 52% | 979 hPa | 0 mm | - | - | - |
| 1777824084 | 12.78° C | 52% | 979 hPa | 0 mm | - | - | - |
| 1777823146 | 12.78° C | 54% | 980.1 hPa | 0 mm | - | - | - |
| 1777822262 | 12.22° C | 56% | 979.8 hPa | 0 mm | - | - | - |
| 1777821346 | 11.67° C | 56% | 979.8 hPa | 0 mm | - | - | - |
| 1777820479 | 11.67° C | 56% | 979.8 hPa | 0 mm | - | - | - |
| 1777819546 | 11.67° C | 58% | 979.6 hPa | 0 mm | - | - | - |
| 1777818668 | 11.11° C | 57% | 979.8 hPa | 0 mm | - | - | - |
| 1777817747 | 10.56° C | 57% | 979.8 hPa | 0 mm | - | - | - |
| 1777816885 | 10° C | 57% | 979.8 hPa | 0 mm | - | - | - |
| 1777815946 | 9.44° C | 61% | 980.3 hPa | 0 mm | - | - | - |
* Rain latest hour (hover to see other rain measurements)
** Current wind speed in m/s (hover to see current wind gust speed)